THOR ABLESTAR DEB, 225

Orbit data source: Space-Track

THOR ABLESTAR DEB, 225 is space debris in LEO originally from a launch on Thu, 29 Jun 1961 UTC launched from the Air Force Eastern Test Range (AFETR). Debris objects in space refer to the collection of defunct objects orbiting the Earth. Examples of debris include non-operational satellites, rocket bodies, and fragments generated from explosions, collisions, or faulty payload assembly.

Loading next visibility...
Identifier
225, 1961-015BM
Orbit
LEO
Country
Flag of USUS
Related business
Manufacturer
Unknown
Mission
Spacecraft
Bus & Motor
Unknown
Mass
Unknown
Launch date (UTC)
1961-06-29 (64 years ago)
Launch vehicle
Unknown
Launch site
Air Force Eastern Test Range (AFETR)
Object type
Payload
Rocket body
Debris
Shape & HBR
Unknown shape, 0.1 m
Radar Cross Section
Small (<0.1 m²)

Expand to show TLE details & history
Last TLE update: 4 hours ago

TLE from 4 hours ago
0 THOR ABLESTAR DEB
1   225U 61015BM  25306.49566532  .00001201  00000-0  40567-3 0  9997
2   225  66.7946 125.9967 0096761  24.3639 336.1992 14.37752237325132
Epoch: 2025-11-02T11:53Z
TLE epoch observation values (Epoch: 2025-11-02T11:53:45.483Z)
Latitude
-0.00004°
Longitude
-94.4534°
Altitude
704.912 km
Speed
7.537 km/s
True Right ascension
08h 23m 59s
True Declination
0° 00' 00"
Sunlit
Object was in daylight at epoch
Visualization orbit readout
Latitude
Unknown
Longitude
Unknown
Altitude
Unknown
Speed
Unknown
Apparent Right ascension
Unknown
Apparent Declination
Unknown
Sunlit
N/A
Visualization observer readout
Local Sidereal Time
12:03:03
Azimuth
Unknown
Elevation
Unknown
Doppler factor
Unknown
Orbital elements
Apogee altitude
833.403 km
Perigee altitude
695.182 km
Semi-major axis
7,142.429 km
Eccentricity
0.00968
Inclination
66.7946°
RAAN
125.9967°
Arg. of periapsis
24.3639°
True anomaly
335.74673°
Mean anomaly
336.1992°
Eccentric anomaly
335.97347°
Mean motion
3.59562 °/min
Orbital period
100.12 mins
BSTAR
0.00040567

Documentation

Showing up to 5 results
|